GW4137 Weather Reports


time (UTC)temp
F
wind
direction
speed
knots
gust
knots
rain 1hr
in
rain 24hr
in
rain mn
in
humidity
%
barometer
mb
20260502194601 61 59 9.6 14.8 0.00 0.00 0.00 41 1018.5
20260502193056 61 53 5.2 10.4 0.00 0.00 0.00 42 1018.5
20260502191550 61 32 3.5 11.3 0.00 0.00 0.00 42 1018.8
20260502190057 61 0 3.5 7.0 0.00 0.00 0.00 41 1018.8
20260502184555 61 0 0.0 3.5 0.00 0.00 0.00 40 1018.9
20260502183104 62 0 0.0 5.2 0.00 0.00 0.00 39 1018.9
20260502181551 62 0 0.0 3.5 0.00 0.00 0.00 41 1019.1
20260502163055 59 299 3.5 9.6 0.00 0.00 0.00 43 1019.4
20260502161549 60 336 9.6 13.9 0.00 0.00 0.00 41 1019.5
20260502151556 58 61 4.3 9.6 0.00 0.00 0.00 44 1019.3
20260502123058 49 30 9.6 13.0 0.00 0.00 0.00 54 1017.9
20260502121553 49 34 10.4 13.9 0.00 0.00 0.00 53 1017.9
20260502114610 50 42 12.2 18.2 0.00 0.00 0.00 51 1017.3
20260502113059 50 34 12.2 16.5 0.00 0.00 0.00 51 1017.2
20260502111559 50 42 12.2 15.6 0.00 0.00 0.00 50 1017.0
20260502110053 50 42 10.4 15.6 0.00 0.00 0.00 49 1016.7
20260502104554 47 13 3.5 8.7 0.00 0.00 0.00 54 1016.6
20260502103055 48 11 2.6 7.8 0.00 0.00 0.00 49 1016.5
20260502101623 47 360 3.5 5.2 0.00 0.00 0.00 50 1016.3
20260502090113 50 331 4.3 8.7 0.00 0.00 0.00 45 1015.4
20260502080106 52 313 2.6 4.3 0.00 0.00 0.00 39 1014.9
20260502070107 52 328 1.7 4.3 0.00 0.00 0.00 40 1014.8
20260502064556 55 0 0.9 5.2 0.00 0.00 0.00 36 1014.8
20260502063058 57 321 6.1 11.3 0.00 0.00 0.00 33 1014.8
20260502061602 56 322 6.1 10.4 0.00 0.00 0.00 34 1014.8
20260502060053 56 328 8.7 12.2 0.00 0.00 0.00 34 1014.8
20260502054555 56 319 10.4 14.8 0.00 0.00 0.00 32 1014.7
20260502053054 58 321 11.3 13.9 0.00 0.00 0.00 30 1014.6
20260502051620 58 315 9.6 14.8 0.00 0.00 0.00 30 1014.5
20260502050054 57 329 12.2 14.8 0.00 0.00 0.00 31 1014.3
20260502044554 57 322 7.8 11.3 0.00 0.00 0.00 31 1014.4
20260502043054 57 302 3.5 6.1 0.00 0.00 0.00 31 1014.4
20260502041551 59 296 7.0 12.2 0.00 0.00 0.00 27 1014.5
20260502040057 58 294 7.0 11.3 0.00 0.00 0.00 27 1014.5
20260502034553 58 293 4.3 10.4 0.00 0.00 0.00 26 1014.5
20260502033058 59 296 5.2 8.7 0.00 0.00 0.00 25 1014.3
20260502031555 59 292 2.6 6.1 0.00 0.00 0.00 24 1014.1
20260502030100 60 293 0.9 4.3 0.00 0.00 0.00 23 1014.0
20260502024553 62 0 0.9 4.3 0.00 0.00 0.00 22 1013.8
20260502023118 64 292 2.6 7.8 0.00 0.00 0.00 20 1013.7
20260502021548 66 292 4.3 8.7 0.00 0.00 0.00 18 1013.7
20260502020106 68 288 3.5 7.0 0.00 0.00 0.00 18 1013.6
20260502014552 69 285 3.5 8.7 0.00 0.00 0.00 18 1013.7
20260502013102 71 289 4.3 9.6 0.00 0.00 0.00 16 1013.6
20260502011559 72 279 6.1 10.4 0.00 0.00 0.00 17 1013.6
20260502010050 73 262 4.3 12.2 0.00 0.00 0.00 15 1013.8
20260502004605 74 276 7.0 13.9 0.00 0.00 0.00 14 1013.8
20260502003054 74 260 3.5 9.6 0.00 0.00 0.00 16 1013.9
20260502001606 74 265 3.5 13.0 0.00 0.00 0.00 16 1014.0
20260502000101 74 0 2.6 10.4 0.00 0.00 0.00 16 1014.0
20260501234607 74 270 4.3 8.7 0.00 0.00 0.00 16 1014.1
20260501233103 74 263 7.8 12.2 0.00 0.00 0.00 16 1014.2
20260501231557 74 261 6.1 15.6 0.00 0.00 0.00 17 1014.3
20260501230057 74 326 5.2 13.0 0.00 0.00 0.00 18 1014.3
20260501224556 74 0 4.3 10.4 0.00 0.00 0.00 18 1014.6
20260501223100 74 290 4.3 14.8 0.00 0.00 0.00 19 1014.8
20260501221547 74 248 4.3 15.6 0.00 0.00 0.00 19 1014.9
20260501220135 74 318 4.3 15.6 0.00 0.00 0.00 20 1015.0
20260501214548 73 317 5.2 11.3 0.00 0.00 0.00 20 1015.1
20260501213100 73 313 8.7 13.0 0.00 0.00 0.00 20 1015.2
20260501211549 73 234 6.1 13.0 0.00 0.00 0.00 21 1015.3
20260501210105 73 306 5.2 12.2 0.00 0.00 0.00 21 1015.3
20260501204554 72 265 3.5 9.6 0.00 0.00 0.00 20 1015.5
20260501203050 72 323 2.6 10.4 0.00 0.00 0.00 21 1015.6
20260501201556 72 236 6.1 13.9 0.00 0.00 0.00 20 1015.6
20260501200052 71 38 1.7 11.3 0.00 0.00 0.00 20 1015.8